User: anonymous   Login
Location: Codford Saint Peter
(51.1597°N, 2.0531°W)
Time: 02:35:12
(UTC+00:00)
Language:

Meteor 2-13 Rocket - Orbit

View from above orbital plane
View from above orbital plane
View from above satellite
View from above satellite

Ground track
Ground track

The orbit data is extracted from the following two-line orbital elements,

1 16409U 85119B   20332.39040459 +.00000010 +00000-0 -47397-5 0  9995
2 16409 082.5385 077.0308 0016206 090.8608 269.4409 13.84814430764810
Epoch (UTC): 27 November 2020 09:22:10
Eccentricity: 0.0016206
inclination: 82.5385°
perigee height: 935 km
apogee height: 959 km
right ascension of ascending node: 77.0308°
argument of perigee: 90.8608°
revolutions per day: 13.84814430
mean anomaly at epoch: 269.4409°
orbit number at epoch: 76481

The dashed part of the orbit path shows where the satellite is in the earth's shadow,  

DLR